Location: Coupvray
(48.8929°N, 2.7967°E)
Time: 04:33:47
(UTC+00:00)

Cosmos 1763 Rocket - Pass Details

Date: 14 July 2020
Orbit: 732 x 781 km, 74.0° (Epoch: 06 August)

Event Time Altitude Azimuth Distance (km) Brightness Sun altitude
Rises 02:21:25 0° 338° (NNW) 3,238 7.2 -12.3°
Reaches altitude 10° 02:23:49 10° 341° (NNW) 2,315 6.5 -12.1°
Maximum altitude 02:29:03 66° 64° (ENE) 846 4.0 -11.5°
Drops below altitude 10° 02:34:18 10° 147° (SSE) 2,324 5.8 -11.0°
Sets 02:36:43 0° 150° (SSE) 3,251 6.5 -10.8°
